Doha, Qatar

7:56 PM +03 on December 12, 2017 (GMT +0300)
Doha International

Weather History for OTBD - December, 2012

Change the Weather History Date:

Friday, December 14, 2012

  Actual Average Record
Temperature  
Mean Temperature 70 °F -  
Max Temperature 75 °F 73 °F 84 °F (2001)
Min Temperature 64 °F 57 °F 57 °F (1996)
Cooling Degree Days 4    
Growing Degree Days 20 (Base 50)    
Moisture  
Dew Point 56 °F    
Average Humidity 62    
Maximum Humidity 77    
Minimum Humidity 41    
Precipitation  
Precipitation 0.04 in 0.02 in - ()
Sea Level Pressure  
Sea Level Pressure 30.02 in    
Wind  
Wind Speed 8 mph ()    
Max Wind Speed 14 mph    
Max Gust Speed -    
Visibility 6.0 miles    
Events Rain , Thunderstorm    
Averages and records for this station are not official NWS values.
T = Trace of Precipitation, MM = Missing Value Source: Averaged Metar Reports

Daily Weather History Graph

Daily Weather History Graph

Search for Another Location

Airport or City:

Trip Planner

Search our weather history database for the weather conditions in past years. The results will help you decide how hot, cold, wet, or windy it might be!

Date:

Astronomy

Dec. 14, 2012 Rise Set
Actual Time 6:11 AM +03 4:45 PM +03
Civil Twilight 5:45 AM +03 5:11 PM +03
Nautical Twilight 5:17 AM +03 5:39 PM +03
Astronomical Twilight 4:49 AM +03 6:07 PM +03
Moon 6:58 AM +03 (12/14) 6:05 PM +03 (12/14)
Length of Visible Light 11h 25m
Length of Day
10h 34m
New Moon, 2% of the Moon is Illuminated
Dec 14
New Moon
Dec 20
First Quarter
Dec 28
Full
Jan 5
Last Quarter
Jan 11
New

Hourly Weather History & Observations

Time (+03) Temp. Dew Point Humidity Pressure Visibility Wind Dir Wind Speed Gust Speed Precip Events Conditions
12:00 AM 66.2 °F 55.4 °F 68% 30.01 in - West 5.8 mph - N/A   Clear
1:00 AM 66.2 °F 55.4 °F 68% 29.98 in - NW 6.9 mph - N/A   Clear
2:30 AM 66.2 °F 53.6 °F 64% 30.01 in - WNW 8.1 mph - N/A   Clear
3:00 AM 66.2 °F 55.4 °F 68% 29.98 in 5.0 mi NW 8.1 mph - N/A Thunderstorm Thunderstorm
3:30 AM 64.4 °F 55.4 °F 73% 29.98 in 6.2 mi WNW 9.2 mph - N/A   Scattered Clouds
4:00 AM 66.2 °F 55.4 °F 68% 29.98 in 5.6 mi NW 8.1 mph - N/A Rain , Thunderstorm Light Thunderstorms and Rain
4:30 AM 64.4 °F 57.2 °F 77% 29.98 in 5.6 mi NW 9.2 mph - N/A Thunderstorm Light Thunderstorm
5:00 AM 64.4 °F 57.2 °F 77% 29.98 in 5.0 mi WNW 8.1 mph - N/A Rain , Thunderstorm Light Thunderstorms and Rain
5:30 AM 64.4 °F 57.2 °F 77% 30.01 in 5.6 mi NW 8.1 mph - N/A Thunderstorm Light Thunderstorm
6:00 AM 64.4 °F 55.4 °F 73% 30.01 in 5.6 mi NW 6.9 mph - N/A Thunderstorm Light Thunderstorm
6:30 AM 64.4 °F 55.4 °F 73% 30.01 in 5.6 mi NW 6.9 mph - N/A Thunderstorm Thunderstorm
7:00 AM 64.4 °F 55.4 °F 73% 30.01 in 5.6 mi NW 6.9 mph - N/A   Scattered Clouds
7:30 AM 66.2 °F 55.4 °F 68% 30.04 in 5.6 mi WNW 8.1 mph - N/A   Unknown
8:00 AM 66.2 °F 57.2 °F 73% 30.04 in 5.6 mi NW 6.9 mph - N/A   Unknown
8:30 AM 68.0 °F 57.2 °F 68% 30.06 in 5.6 mi WNW 8.1 mph - N/A   Unknown
9:00 AM 68.0 °F 57.2 °F 68% 30.06 in 5.6 mi NW 9.2 mph - N/A   Unknown
9:30 AM 69.8 °F 57.2 °F 64% 30.06 in - NW 9.2 mph - N/A   Clear
10:00 AM 71.6 °F 59.0 °F 64% 30.06 in - NW 8.1 mph - N/A   Clear
10:30 AM 71.6 °F 57.2 °F 60% 30.04 in - WNW 9.2 mph - N/A   Clear
11:00 AM 71.6 °F 57.2 °F 60% 30.04 in - NW 9.2 mph - N/A   Clear
11:30 AM 71.6 °F 57.2 °F 60% 30.04 in - NW 6.9 mph - N/A   Clear
12:00 PM 73.4 °F 57.2 °F 57% 30.01 in - NW 6.9 mph - N/A   Clear
12:30 PM 73.4 °F 57.2 °F 57% 30.01 in - NW 8.1 mph - N/A   Clear
1:00 PM 73.4 °F 57.2 °F 57% 29.98 in - NW 8.1 mph - N/A   Clear
1:30 PM 73.4 °F 57.2 °F 57% 29.98 in 6.2 mi NW 6.9 mph - N/A   Partly Cloudy
2:00 PM 73.4 °F 57.2 °F 57% 29.98 in 6.2 mi NNW 6.9 mph - N/A   Scattered Clouds
2:30 PM 75.2 °F 55.4 °F 50% 30.01 in 6.2 mi North 9.2 mph - N/A   Scattered Clouds
3:00 PM 74 °F 55 °F 41% 30.00 in 7 mi North 11.5 mph - -   Partly Cloudy
3:00 PM 75.2 °F 55.4 °F 50% 29.98 in 6.2 mi North 11.5 mph - N/A   Scattered Clouds
3:30 PM 73.4 °F 57.2 °F 57% 30.01 in 6.2 mi North 9.2 mph - N/A   Scattered Clouds
4:00 PM 73.4 °F 55.4 °F 53% 30.01 in 6.2 mi North 11.5 mph - N/A   Scattered Clouds
4:30 PM 71.6 °F 57.2 °F 60% 30.01 in 6.2 mi North 13.8 mph - N/A   Partly Cloudy
5:00 PM 71.6 °F 55.4 °F 57% 30.01 in 6.2 mi North 11.5 mph - N/A   Scattered Clouds
5:30 PM 71.6 °F 55.4 °F 57% 30.04 in 6.2 mi North 11.5 mph - N/A   Scattered Clouds
6:00 PM 71.6 °F 53.6 °F 53% 30.04 in 6.2 mi NNW 12.7 mph - N/A   Scattered Clouds
6:30 PM 71.6 °F 55.4 °F 57% 30.04 in 6.2 mi NNW 12.7 mph - N/A Rain Light Rain
7:00 PM 69.8 °F 55.4 °F 60% 30.04 in 6.2 mi NNW 12.7 mph - N/A Rain Light Rain
8:00 PM 69.8 °F 55.4 °F 60% 30.06 in 6.2 mi NNW 12.7 mph - N/A Rain Light Rain
8:30 PM 68.0 °F 55.4 °F 64% 30.06 in 6.2 mi NNW 11.5 mph - N/A Rain Light Rain
9:00 PM 68.0 °F 55.4 °F 64% 30.06 in 6.2 mi NNW 10.4 mph - N/A Rain Light Rain
9:30 PM 68.0 °F 53.6 °F 60% 30.06 in 6.2 mi NNW 11.5 mph - N/A   Scattered Clouds
10:00 PM 68.0 °F 53.6 °F 60% 30.06 in 6.2 mi NW 9.2 mph - N/A   Scattered Clouds
10:30 PM 68.0 °F 53.6 °F 60% 30.09 in 6.2 mi NNW 10.4 mph - N/A   Scattered Clouds
11:00 PM 68.0 °F 53.6 °F 60% 30.06 in - NNW 11.5 mph - N/A   Clear
11:30 PM 68.0 °F 53.6 °F 60% 30.06 in - NNW 11.5 mph - N/A   Clear